User: anonymous   Login
Location: Unspecified
(0.0000°N, 0.0000°E)
Time: 18:51:32
(UTC+00:00)
Language:

CBERS 2 - Orbit

View from above orbital plane
View from above orbital plane
View from above satellite
View from above satellite

Ground track
Ground track

The orbit data is extracted from the following two-line orbital elements,

1 28057U 03049A   17145.86915886 +.00000002 +00000-0 +15469-4 0  9998
2 28057 098.3325 102.0744 0000549 046.8167 313.3069 14.35561247712319
Epoch (UTC): 25 May 2017 20:51:35
Eccentricity: 0.0000549
inclination: 98.3325°
perigee height: 773 km
apogee height: 773 km
right ascension of ascending node: 102.0744°
argument of perigee: 46.8167°
revolutions per day: 14.35561247
mean anomaly at epoch: 313.3069°
orbit number at epoch: 71231

The dashed part of the orbit path shows where the satellite is in the earth's shadow,  

DLR